This is the latest recevied weather packets stored in our database for station/object KD9IXX-13. If no packets are shown the sender has not sent any weather packets the latest 10 day(s).
| Time | Temp. | Humidity | Pressure | Rain* | Wind** | Luminosity | Snow |
|---|---|---|---|---|---|---|---|
| 1777902902 | 17.78° C | 70% | 1005.9 hPa | 0 mm | - | 548 W/m² | - |
| 1777902602 | 17.22° C | 71% | 1006 hPa | 0 mm | - | 489 W/m² | - |
| 1777902302 | 16.67° C | 72% | 1006 hPa | 0 mm | - | 454 W/m² | - |
| 1777902002 | 16.67° C | 72% | 1006.3 hPa | 0 mm | - | 420 W/m² | - |
| 1777901702 | 16.67° C | 75% | 1006.2 hPa | 0 mm | - | 404 W/m² | - |
| 1777901403 | 16.11° C | 75% | 1006.3 hPa | 0 mm | - | 391 W/m² | - |
| 1777901102 | 15.56° C | 76% | 1006.1 hPa | 0 mm | - | 358 W/m² | - |
| 1777900802 | 15.56° C | 76% | 1006.4 hPa | 0 mm | - | 337 W/m² | - |
| 1777900502 | 15.56° C | 76% | 1006.4 hPa | 0 mm | - | 321 W/m² | - |
| 1777900202 | 15° C | 78% | 1006.5 hPa | 0 mm | - | 292 W/m² | - |
| 1777899902 | 14.44° C | 78% | 1006.4 hPa | 0 mm | - | 276 W/m² | - |
| 1777899602 | 14.44° C | 80% | 1006.5 hPa | 0 mm | - | 275 W/m² | - |
| 1777899302 | 13.89° C | 80% | 1006.5 hPa | 0 mm | - | 69 W/m² | - |
| 1777899002 | 13.89° C | 81% | 1006.5 hPa | 0 mm | - | 241 W/m² | - |
| 1777898703 | 13.33° C | 83% | 1006.6 hPa | 0 mm | - | 223 W/m² | - |
| 1777898401 | 12.78° C | 84% | 1006.7 hPa | 0 mm | - | 202 W/m² | - |
| 1777898102 | 12.22° C | 86% | 1006.6 hPa | 0 mm | - | 184 W/m² | - |
| 1777897802 | 12.22° C | 86% | 1006.6 hPa | 0 mm | - | 53 W/m² | - |
| 1777897502 | 11.67° C | 87% | 1006.6 hPa | 0 mm | - | 161 W/m² | - |
| 1777897202 | 11.11° C | 88% | 1006.7 hPa | 0 mm | - | 145 W/m² | - |
| 1777896902 | 11.11° C | 89% | 1006.6 hPa | 0 mm | - | 130 W/m² | - |
| 1777896602 | 10.56° C | 90% | 1006.6 hPa | 0 mm | - | 119 W/m² | - |
| 1777896302 | 10° C | 92% | 1006.6 hPa | 0 mm | - | 102 W/m² | - |
| 1777896002 | 9.44° C | 93% | 1006.6 hPa | 0 mm | - | 51 W/m² | - |
| 1777895703 | 9.44° C | 94% | 1006.7 hPa | 0 mm | - | 39 W/m² | - |
* Rain latest hour (hover to see other rain measurements)
** Current wind speed in m/s (hover to see current wind gust speed)